Simultaneous Nadir Overpasses (SNOs) Predictions

Prediction of SNOs between NOAA-19 and NPP Satellite Orbit:

Table of predicted SNOs for the next 14.0 days since TLE Epoch: 5/17/2014
Index Date (NOAA-19) Time (NOAA-19) Lat,Lon (NOAA-19) SZA (NOAA-19 ) Date (NPP) Time (NPP) Lat,Lon (NPP) SZA (NPP ) Distance(km) Time Diff (sec)
1 05/21/2014 09:07:46 -81.00, 169.39 115.49 05/21/2014 09:08:52 -81.00, 169.26 115.50 2.22 66
2 05/21/2014 09:58:53 81.00, -23.34 64.51 05/21/2014 09:59:37 81.00, -23.32 64.48 0.51 44
3 05/21/2014 10:49:50 -81.00, 143.75 115.48 05/21/2014 10:50:22 -81.00, 143.89 115.52 2.50 32
4 05/21/2014 11:40:56 80.99, -48.61 64.46 05/21/2014 11:41:07 81.00, -48.69 64.46 1.45 11
5 05/21/2014 12:31:52 -80.99, 118.85 115.58 05/21/2014 12:31:51 -80.99, 118.88 115.59 0.66 1
6 05/21/2014
